Year,Month,Day,Hour,Minute,Value (Times are PST for temperature in C)
2012,07,10,00,00,12.90
2012,07,10,00,01,12.80
2012,07,10,00,02,12.80
2012,07,10,00,03,12.80
2012,07,10,00,04,12.80
2012,07,10,00,05,12.80
2012,07,10,00,06,12.80
2012,07,10,00,07,12.80
2012,07,10,00,08,12.80
2012,07,10,00,09,12.90
2012,07,10,00,10,12.90
2012,07,10,00,11,12.90
2012,07,10,00,12,12.90
2012,07,10,00,13,12.90
2012,07,10,00,14,12.90
2012,07,10,00,15,12.90
2012,07,10,00,16,12.90
2012,07,10,00,17,12.90
2012,07,10,00,18,12.90
2012,07,10,00,19,12.90
2012,07,10,00,20,12.90
2012,07,10,00,21,12.90
2012,07,10,00,22,12.90
2012,07,10,00,23,12.90
2012,07,10,00,24,12.90
2012,07,10,00,25,12.90
2012,07,10,00,26,12.90
2012,07,10,00,27,12.90
2012,07,10,00,28,12.90
2012,07,10,00,29,12.90
2012,07,10,00,30,12.90
2012,07,10,00,31,12.90
2012,07,10,00,32,12.90
2012,07,10,00,33,12.90
2012,07,10,00,34,12.90
2012,07,10,00,35,12.90
2012,07,10,00,36,12.90
2012,07,10,00,37,12.80
2012,07,10,00,38,12.80
2012,07,10,00,39,12.80
2012,07,10,00,40,12.80
2012,07,10,00,41,12.80
2012,07,10,00,42,12.80
2012,07,10,00,43,12.80
2012,07,10,00,44,12.80
2012,07,10,00,45,12.80
2012,07,10,00,46,12.80
2012,07,10,00,47,12.80
2012,07,10,00,48,12.80
2012,07,10,00,49,12.80
2012,07,10,00,50,12.80
2012,07,10,00,51,12.80
2012,07,10,00,52,12.80
2012,07,10,00,53,12.80
2012,07,10,00,54,12.80
2012,07,10,00,55,12.80
2012,07,10,00,56,12.80
2012,07,10,00,57,12.80
2012,07,10,00,58,12.80
2012,07,10,00,59,12.80
2012,07,10,01,00,12.80
2012,07,10,01,01,12.70
2012,07,10,01,02,12.70
2012,07,10,01,03,12.70
2012,07,10,01,04,12.70
2012,07,10,01,05,12.70
2012,07,10,01,06,12.70
2012,07,10,01,07,12.60
2012,07,10,01,08,12.60
2012,07,10,01,09,12.60
2012,07,10,01,10,12.60
2012,07,10,01,11,12.60
2012,07,10,01,12,12.60
2012,07,10,01,13,12.60
2012,07,10,01,14,12.50
2012,07,10,01,15,12.50
2012,07,10,01,16,12.50
2012,07,10,01,17,12.50
2012,07,10,01,18,12.50
2012,07,10,01,19,12.40
2012,07,10,01,20,12.40
2012,07,10,01,21,12.40
2012,07,10,01,22,12.40
2012,07,10,01,23,12.30
2012,07,10,01,24,12.30
2012,07,10,01,25,12.30
2012,07,10,01,26,12.30
2012,07,10,01,27,12.30
2012,07,10,01,28,12.30
2012,07,10,01,29,12.30
2012,07,10,01,30,12.30
2012,07,10,01,31,12.30
2012,07,10,01,32,12.30
2012,07,10,01,33,12.30
2012,07,10,01,34,12.30
2012,07,10,01,35,12.30
2012,07,10,01,36,12.20
2012,07,10,01,37,12.20
2012,07,10,01,38,12.20
2012,07,10,01,39,12.20
2012,07,10,01,40,12.20
2012,07,10,01,41,12.20
2012,07,10,01,42,12.20
2012,07,10,01,43,12.10
2012,07,10,01,44,12.10
2012,07,10,01,45,12.10
2012,07,10,01,46,12.10
2012,07,10,01,47,12.10
2012,07,10,01,48,12.10
2012,07,10,01,49,12.10
2012,07,10,01,50,12.10
2012,07,10,01,51,12.10
2012,07,10,01,52,12.10
2012,07,10,01,53,12.00
2012,07,10,01,54,12.00
2012,07,10,01,55,12.00
2012,07,10,01,56,12.00
2012,07,10,01,57,12.00
2012,07,10,01,58,11.90
2012,07,10,01,59,11.90
2012,07,10,02,00,11.90
2012,07,10,02,01,11.90
2012,07,10,02,02,11.90
2012,07,10,02,03,11.80
2012,07,10,02,04,11.80
2012,07,10,02,05,11.80
2012,07,10,02,06,11.80
2012,07,10,02,07,11.80
2012,07,10,02,08,11.80
2012,07,10,02,09,11.80
2012,07,10,02,10,11.80
2012,07,10,02,11,11.80
2012,07,10,02,12,11.80
2012,07,10,02,13,11.80
2012,07,10,02,14,11.80
2012,07,10,02,15,11.70
2012,07,10,02,16,11.70
2012,07,10,02,17,11.70
2012,07,10,02,18,11.70
2012,07,10,02,19,11.70
2012,07,10,02,20,11.70
2012,07,10,02,21,11.70
2012,07,10,02,22,11.70
2012,07,10,02,23,11.60
2012,07,10,02,24,11.60
2012,07,10,02,25,11.60
2012,07,10,02,26,11.60
2012,07,10,02,27,11.60
2012,07,10,02,28,11.60
2012,07,10,02,29,11.40
2012,07,10,02,30,11.40
2012,07,10,02,31,11.40
2012,07,10,02,32,11.40
2012,07,10,02,33,11.40
2012,07,10,02,34,11.40
2012,07,10,02,35,11.40
2012,07,10,02,36,11.30
2012,07,10,02,37,11.30
2012,07,10,02,38,11.30
2012,07,10,02,39,11.30
2012,07,10,02,40,11.20
2012,07,10,02,41,11.20
2012,07,10,02,42,11.20
2012,07,10,02,43,11.20
2012,07,10,02,44,11.10
2012,07,10,02,45,11.10
2012,07,10,02,46,11.10
2012,07,10,02,47,11.10
2012,07,10,02,48,11.10
2012,07,10,02,49,11.10
2012,07,10,02,50,11.10
2012,07,10,02,51,11.10
2012,07,10,02,52,11.10
2012,07,10,02,53,11.10
2012,07,10,02,54,11.10
2012,07,10,02,55,11.10
2012,07,10,02,56,11.10
2012,07,10,02,57,11.10
2012,07,10,02,58,11.10
2012,07,10,02,59,11.10
2012,07,10,03,00,11.10
2012,07,10,03,01,11.10
2012,07,10,03,02,11.10
2012,07,10,03,03,11.10
2012,07,10,03,04,11.10
2012,07,10,03,05,11.10
2012,07,10,03,06,11.10
2012,07,10,03,07,11.10
2012,07,10,03,08,11.10
2012,07,10,03,09,11.10
2012,07,10,03,10,11.10
2012,07,10,03,11,11.10
2012,07,10,03,12,11.10
2012,07,10,03,13,11.10
2012,07,10,03,14,11.10
2012,07,10,03,15,11.10
2012,07,10,03,16,11.10
2012,07,10,03,17,11.10
2012,07,10,03,18,11.10
2012,07,10,03,19,11.10
2012,07,10,03,20,11.10
2012,07,10,03,21,11.00
2012,07,10,03,22,10.90
2012,07,10,03,23,10.90
2012,07,10,03,24,10.90
2012,07,10,03,25,10.90
2012,07,10,03,26,10.90
2012,07,10,03,27,10.90
2012,07,10,03,28,10.90
2012,07,10,03,29,10.90
2012,07,10,03,30,10.90
2012,07,10,03,31,10.90
2012,07,10,03,32,10.90
2012,07,10,03,33,10.90
2012,07,10,03,34,11.10
2012,07,10,03,35,11.10
2012,07,10,03,36,11.10
2012,07,10,03,37,11.10
2012,07,10,03,38,11.10
2012,07,10,03,39,11.10
2012,07,10,03,40,11.10
2012,07,10,03,41,11.10
2012,07,10,03,42,11.10
2012,07,10,03,43,11.10
2012,07,10,03,44,11.10
2012,07,10,03,45,11.10
2012,07,10,03,46,11.20
2012,07,10,03,47,11.20
2012,07,10,03,48,11.30
2012,07,10,03,49,11.30
2012,07,10,03,50,11.30
2012,07,10,03,51,11.30
2012,07,10,03,52,11.20
2012,07,10,03,53,11.20
2012,07,10,03,54,11.20
2012,07,10,03,55,11.20
2012,07,10,03,56,11.20
2012,07,10,03,57,11.10
2012,07,10,03,58,11.10
2012,07,10,03,59,11.10
2012,07,10,04,00,11.10
2012,07,10,04,01,11.10
2012,07,10,04,02,11.10
2012,07,10,04,03,11.10
2012,07,10,04,04,11.10
2012,07,10,04,05,11.10
2012,07,10,04,06,11.10
2012,07,10,04,07,11.10
2012,07,10,04,08,11.10
2012,07,10,04,09,11.10
2012,07,10,04,10,11.10
2012,07,10,04,11,10.90
2012,07,10,04,12,10.90
2012,07,10,04,13,10.90
2012,07,10,04,14,10.90
2012,07,10,04,15,10.90
2012,07,10,04,16,10.90
2012,07,10,04,17,10.90
2012,07,10,04,18,10.90
2012,07,10,04,19,10.90
2012,07,10,04,20,10.80
2012,07,10,04,21,10.80
2012,07,10,04,22,10.80
2012,07,10,04,23,10.80
2012,07,10,04,24,10.80
2012,07,10,04,25,10.80
2012,07,10,04,26,10.80
2012,07,10,04,27,10.80
2012,07,10,04,28,10.80
2012,07,10,04,29,10.80
2012,07,10,04,30,10.80
2012,07,10,04,31,10.80
2012,07,10,04,32,10.80
2012,07,10,04,33,10.80
2012,07,10,04,34,10.80
2012,07,10,04,35,10.80
2012,07,10,04,36,10.80
2012,07,10,04,37,10.70
2012,07,10,04,38,10.70
2012,07,10,04,39,10.70
2012,07,10,04,40,10.70
2012,07,10,04,41,10.70
2012,07,10,04,42,10.60
2012,07,10,04,43,10.60
2012,07,10,04,44,10.60
2012,07,10,04,45,10.60
2012,07,10,04,46,10.60
2012,07,10,04,47,10.60
2012,07,10,04,48,10.60
2012,07,10,04,49,10.60
2012,07,10,04,50,10.60
2012,07,10,04,51,10.60
2012,07,10,04,52,10.60
2012,07,10,04,53,10.60
2012,07,10,04,54,10.60
2012,07,10,04,55,10.60
2012,07,10,04,56,10.60
2012,07,10,04,57,10.60
2012,07,10,04,58,10.60
2012,07,10,04,59,10.60
2012,07,10,05,00,10.60
2012,07,10,05,01,10.60
2012,07,10,05,02,10.60
2012,07,10,05,03,10.60
2012,07,10,05,04,10.60
2012,07,10,05,05,10.60
2012,07,10,05,06,10.60
2012,07,10,05,07,10.60
2012,07,10,05,08,10.60
2012,07,10,05,09,10.60
2012,07,10,05,10,10.60
2012,07,10,05,11,10.60
2012,07,10,05,12,10.60
2012,07,10,05,13,10.60
2012,07,10,05,14,10.60
2012,07,10,05,15,10.60
2012,07,10,05,16,10.60
2012,07,10,05,17,10.60
2012,07,10,05,18,10.60
2012,07,10,05,19,10.60
2012,07,10,05,20,10.60
2012,07,10,05,21,10.60
2012,07,10,05,22,10.60
2012,07,10,05,23,10.60
2012,07,10,05,24,10.60
2012,07,10,05,25,10.60
2012,07,10,05,26,10.60
2012,07,10,05,27,10.60
2012,07,10,05,28,10.60
2012,07,10,05,29,10.60
2012,07,10,05,30,10.60
2012,07,10,05,31,10.60
2012,07,10,05,32,10.60
2012,07,10,05,33,10.60
2012,07,10,05,34,10.60
2012,07,10,05,35,10.60
2012,07,10,05,36,10.60
2012,07,10,05,37,10.60
2012,07,10,05,38,10.60
2012,07,10,05,39,10.60
2012,07,10,05,40,10.60
2012,07,10,05,41,10.60
2012,07,10,05,42,10.60
2012,07,10,05,43,10.60
2012,07,10,05,44,10.60
2012,07,10,05,45,10.60
2012,07,10,05,46,10.60
2012,07,10,05,47,10.60
2012,07,10,05,48,10.60
2012,07,10,05,49,10.60
2012,07,10,05,50,10.60
2012,07,10,05,51,10.60
2012,07,10,05,52,10.60
2012,07,10,05,53,10.60
2012,07,10,05,54,10.60
2012,07,10,05,55,10.60
2012,07,10,05,56,10.60
2012,07,10,05,57,10.60
2012,07,10,05,58,10.60
2012,07,10,05,59,10.60
2012,07,10,06,00,10.60
2012,07,10,06,01,10.60
2012,07,10,06,02,10.60
2012,07,10,06,03,10.70
2012,07,10,06,04,10.70
2012,07,10,06,05,10.70
2012,07,10,06,06,10.70
2012,07,10,06,07,10.70
2012,07,10,06,08,10.70
2012,07,10,06,09,10.70
2012,07,10,06,10,10.70
2012,07,10,06,11,10.80
2012,07,10,06,12,10.80
2012,07,10,06,13,10.80
2012,07,10,06,14,10.90
2012,07,10,06,15,10.90
2012,07,10,06,16,10.90
2012,07,10,06,17,10.90
2012,07,10,06,18,10.90
2012,07,10,06,19,10.90
2012,07,10,06,20,11.00
2012,07,10,06,21,11.10
2012,07,10,06,22,11.10
2012,07,10,06,23,11.10
2012,07,10,06,24,11.10
2012,07,10,06,25,11.20
2012,07,10,06,26,11.30
2012,07,10,06,27,11.40
2012,07,10,06,28,11.40
2012,07,10,06,29,11.50
2012,07,10,06,30,11.60
2012,07,10,06,31,11.60
2012,07,10,06,32,11.60
2012,07,10,06,33,11.70
2012,07,10,06,34,11.70
2012,07,10,06,35,11.70
2012,07,10,06,36,11.70
2012,07,10,06,37,11.80
2012,07,10,06,38,11.80
2012,07,10,06,39,11.80
2012,07,10,06,40,11.80
2012,07,10,06,41,11.80
2012,07,10,06,42,11.80
2012,07,10,06,43,11.80
2012,07,10,06,44,11.90
2012,07,10,06,45,12.00
2012,07,10,06,46,12.10
2012,07,10,06,47,12.10
2012,07,10,06,48,12.20
2012,07,10,06,49,12.20
2012,07,10,06,50,12.20
2012,07,10,06,51,12.20
2012,07,10,06,52,12.20
2012,07,10,06,53,12.20
2012,07,10,06,54,12.20
2012,07,10,06,55,12.20
2012,07,10,06,56,12.20
2012,07,10,06,57,12.20
2012,07,10,06,58,12.30
2012,07,10,06,59,12.30
2012,07,10,07,00,12.30
2012,07,10,07,01,12.30
2012,07,10,07,02,12.40
2012,07,10,07,03,12.50
2012,07,10,07,04,12.50
2012,07,10,07,05,12.50
2012,07,10,07,06,12.60
2012,07,10,07,07,12.60
2012,07,10,07,08,12.60
2012,07,10,07,09,12.60
2012,07,10,07,10,12.60
2012,07,10,07,11,12.70
2012,07,10,07,12,12.70
2012,07,10,07,13,12.70
2012,07,10,07,14,12.70
2012,07,10,07,15,12.80
2012,07,10,07,16,12.80
2012,07,10,07,17,12.80
2012,07,10,07,18,12.80
2012,07,10,07,19,12.90
2012,07,10,07,20,12.90
2012,07,10,07,21,13.00
2012,07,10,07,22,13.10
2012,07,10,07,23,13.10
2012,07,10,07,24,13.10
2012,07,10,07,25,13.00
2012,07,10,07,26,13.00
2012,07,10,07,27,13.10
2012,07,10,07,28,13.10
2012,07,10,07,29,13.10
2012,07,10,07,30,13.20
2012,07,10,07,31,13.30
2012,07,10,07,32,13.30
2012,07,10,07,33,13.40
2012,07,10,07,34,13.50
2012,07,10,07,35,13.60
2012,07,10,07,36,13.60
2012,07,10,07,37,13.70
2012,07,10,07,38,13.70
2012,07,10,07,39,13.70
2012,07,10,07,40,13.70
2012,07,10,07,41,13.70
2012,07,10,07,42,13.70
2012,07,10,07,43,13.70
2012,07,10,07,44,13.70
2012,07,10,07,45,13.80
2012,07,10,07,46,13.80
2012,07,10,07,47,13.80
2012,07,10,07,48,13.90
2012,07,10,07,49,13.90
2012,07,10,07,50,14.00
2012,07,10,07,51,14.00
2012,07,10,07,52,14.10
2012,07,10,07,53,14.20
2012,07,10,07,54,14.20
2012,07,10,07,55,14.30
2012,07,10,07,56,14.30
2012,07,10,07,57,14.30
2012,07,10,07,58,14.40
2012,07,10,07,59,14.40
2012,07,10,08,00,14.50
2012,07,10,08,01,14.50
2012,07,10,08,02,14.50
2012,07,10,08,03,14.60
2012,07,10,08,04,14.70
2012,07,10,08,05,14.80
2012,07,10,08,06,14.90
2012,07,10,08,07,15.00
2012,07,10,08,08,15.00
2012,07,10,08,09,15.10
2012,07,10,08,10,15.20
2012,07,10,08,11,15.30
2012,07,10,08,12,15.50
2012,07,10,08,13,15.60
2012,07,10,08,14,15.60
2012,07,10,08,15,15.80
2012,07,10,08,16,15.90
2012,07,10,08,17,16.00
2012,07,10,08,18,16.10
2012,07,10,08,19,16.20
2012,07,10,08,20,16.20
2012,07,10,08,21,16.20
2012,07,10,08,22,16.20
2012,07,10,08,23,16.20
2012,07,10,08,24,16.20
2012,07,10,08,25,16.20
2012,07,10,08,26,16.20
2012,07,10,08,27,16.20
2012,07,10,08,28,16.30
2012,07,10,08,29,16.40
2012,07,10,08,30,16.50
2012,07,10,08,31,16.60
2012,07,10,08,32,16.60
2012,07,10,08,33,16.70
2012,07,10,08,34,16.70
2012,07,10,08,35,16.80
2012,07,10,08,36,16.80
2012,07,10,08,37,16.90
2012,07,10,08,38,16.90
2012,07,10,08,39,16.90
2012,07,10,08,40,17.00
2012,07,10,08,41,17.00
2012,07,10,08,42,17.10
2012,07,10,08,43,17.10
2012,07,10,08,44,17.00
2012,07,10,08,45,17.00
2012,07,10,08,46,17.10
2012,07,10,08,47,17.20
2012,07,10,08,48,17.30
2012,07,10,08,49,17.30
2012,07,10,08,50,17.30
2012,07,10,08,51,17.30
2012,07,10,08,52,17.30
2012,07,10,08,53,17.10
2012,07,10,08,54,17.00
2012,07,10,08,55,16.90
2012,07,10,08,56,16.80
2012,07,10,08,57,16.70
2012,07,10,08,58,16.70
2012,07,10,08,59,16.70
2012,07,10,09,00,16.70
2012,07,10,09,01,16.70
2012,07,10,09,02,16.60
2012,07,10,09,03,16.60
2012,07,10,09,04,16.50
2012,07,10,09,05,16.40
2012,07,10,09,06,16.50
2012,07,10,09,07,16.60
2012,07,10,09,08,16.60
2012,07,10,09,09,16.60
2012,07,10,09,10,16.60
2012,07,10,09,11,16.70
2012,07,10,09,12,16.70
2012,07,10,09,13,16.50
2012,07,10,09,14,16.40
2012,07,10,09,15,16.20
2012,07,10,09,16,16.20
2012,07,10,09,17,16.20
2012,07,10,09,18,16.10
2012,07,10,09,19,16.10
2012,07,10,09,20,16.10
2012,07,10,09,21,16.10
2012,07,10,09,22,16.00
2012,07,10,09,23,15.90
2012,07,10,09,24,15.80
2012,07,10,09,25,15.80
2012,07,10,09,26,15.80
2012,07,10,09,27,15.80
2012,07,10,09,28,15.90
2012,07,10,09,29,16.00
2012,07,10,09,30,16.10
2012,07,10,09,31,16.10
2012,07,10,09,32,16.30
2012,07,10,09,33,16.40
2012,07,10,09,34,16.40
2012,07,10,09,35,16.40
2012,07,10,09,36,16.40
2012,07,10,09,37,16.40
2012,07,10,09,38,16.60
2012,07,10,09,39,16.60
2012,07,10,09,40,16.60
2012,07,10,09,41,16.60
2012,07,10,09,42,16.60
2012,07,10,09,43,16.70
2012,07,10,09,44,16.70
2012,07,10,09,45,16.60
2012,07,10,09,46,16.60
2012,07,10,09,47,16.60
2012,07,10,09,48,16.70
2012,07,10,09,49,16.90
2012,07,10,09,50,16.90
2012,07,10,09,51,16.90
2012,07,10,09,52,16.90
2012,07,10,09,53,16.90
2012,07,10,09,54,16.90
2012,07,10,09,55,16.80
2012,07,10,09,56,16.80
2012,07,10,09,57,16.80
2012,07,10,09,58,16.80
2012,07,10,09,59,16.80
2012,07,10,10,00,16.70
2012,07,10,10,01,16.70
2012,07,10,10,02,16.60
2012,07,10,10,03,16.60
2012,07,10,10,04,16.60
2012,07,10,10,05,16.70
2012,07,10,10,06,16.70
2012,07,10,10,07,16.70
2012,07,10,10,08,16.70
2012,07,10,10,09,16.80
2012,07,10,10,10,16.90
2012,07,10,10,11,17.20
2012,07,10,10,12,17.30
2012,07,10,10,13,17.40
2012,07,10,10,14,17.40
2012,07,10,10,15,17.50
2012,07,10,10,16,17.60
2012,07,10,10,17,17.60
2012,07,10,10,18,17.70
2012,07,10,10,19,17.70
2012,07,10,10,20,17.80
2012,07,10,10,21,17.80
2012,07,10,10,22,17.90
2012,07,10,10,23,17.90
2012,07,10,10,24,17.80
2012,07,10,10,25,17.80
2012,07,10,10,26,17.70
2012,07,10,10,27,17.80
2012,07,10,10,28,17.80
2012,07,10,10,29,17.80
2012,07,10,10,30,17.80
2012,07,10,10,31,17.90
2012,07,10,10,32,17.90
2012,07,10,10,33,17.90
2012,07,10,10,34,17.90
2012,07,10,10,35,17.90
2012,07,10,10,36,17.90
2012,07,10,10,37,17.90
2012,07,10,10,38,17.90
2012,07,10,10,39,17.90
2012,07,10,10,40,17.70
2012,07,10,10,41,17.60
2012,07,10,10,42,17.60
2012,07,10,10,43,17.70
2012,07,10,10,44,17.70
2012,07,10,10,45,17.80
2012,07,10,10,46,17.90
2012,07,10,10,47,18.00
2012,07,10,10,48,18.10
2012,07,10,10,49,17.90
2012,07,10,10,50,17.90
2012,07,10,10,51,17.90
2012,07,10,10,52,17.90
2012,07,10,10,53,18.00
2012,07,10,10,54,18.10
2012,07,10,10,55,18.10
2012,07,10,10,56,18.10
2012,07,10,10,57,18.20
2012,07,10,10,58,18.30
2012,07,10,10,59,18.50
2012,07,10,11,00,18.70
2012,07,10,11,01,18.80
2012,07,10,11,02,18.90
2012,07,10,11,03,18.90
2012,07,10,11,04,18.80
2012,07,10,11,05,18.80
2012,07,10,11,06,18.70
2012,07,10,11,07,18.60
2012,07,10,11,08,18.60
2012,07,10,11,09,18.60
2012,07,10,11,10,18.60
2012,07,10,11,11,18.70
2012,07,10,11,12,18.90
2012,07,10,11,13,19.00
2012,07,10,11,14,19.00
2012,07,10,11,15,18.90
2012,07,10,11,16,18.90
2012,07,10,11,17,18.70
2012,07,10,11,18,18.60
2012,07,10,11,19,18.50
2012,07,10,11,20,18.30
2012,07,10,11,21,18.20
2012,07,10,11,22,18.20
2012,07,10,11,23,18.20
2012,07,10,11,24,18.30
2012,07,10,11,25,18.30
2012,07,10,11,26,18.30
2012,07,10,11,27,18.40
2012,07,10,11,28,18.30
2012,07,10,11,29,18.30
2012,07,10,11,30,18.50
2012,07,10,11,31,18.50
2012,07,10,11,32,18.40
2012,07,10,11,33,18.40
2012,07,10,11,34,18.40
2012,07,10,11,35,18.40
2012,07,10,11,36,18.30
2012,07,10,11,37,18.40
2012,07,10,11,38,18.40
2012,07,10,11,39,18.40
2012,07,10,11,40,18.50
2012,07,10,11,41,18.60
2012,07,10,11,42,18.70
2012,07,10,11,43,18.60
2012,07,10,11,44,18.50
2012,07,10,11,45,18.40
2012,07,10,11,46,18.40
2012,07,10,11,47,18.50
2012,07,10,11,48,18.60
2012,07,10,11,49,18.80
2012,07,10,11,50,18.90
2012,07,10,11,51,18.90
2012,07,10,11,52,18.90
2012,07,10,11,53,18.90
2012,07,10,11,54,18.80
2012,07,10,11,55,18.70
2012,07,10,11,56,18.70
2012,07,10,11,57,18.70
2012,07,10,11,58,18.70
2012,07,10,11,59,18.50
2012,07,10,12,00,18.40
2012,07,10,12,01,18.50
2012,07,10,12,02,18.60
2012,07,10,12,03,18.60
2012,07,10,12,04,18.60
2012,07,10,12,05,18.50
2012,07,10,12,06,18.40
2012,07,10,12,07,18.40
2012,07,10,12,08,18.40
2012,07,10,12,09,18.40
2012,07,10,12,10,18.60
2012,07,10,12,11,18.70
2012,07,10,12,12,18.70
2012,07,10,12,13,18.70
2012,07,10,12,14,18.90
2012,07,10,12,15,19.00
2012,07,10,12,16,19.10
2012,07,10,12,17,19.00
2012,07,10,12,18,18.90
2012,07,10,12,19,18.70
2012,07,10,12,20,18.60
2012,07,10,12,21,18.50
2012,07,10,12,22,18.50
2012,07,10,12,23,18.60
2012,07,10,12,24,18.60
2012,07,10,12,25,18.60
2012,07,10,12,26,18.70
2012,07,10,12,27,18.70
2012,07,10,12,28,18.70
2012,07,10,12,29,18.60
2012,07,10,12,30,18.60
2012,07,10,12,31,18.60
2012,07,10,12,32,18.50
2012,07,10,12,33,18.40
2012,07,10,12,34,18.40
2012,07,10,12,35,18.40
2012,07,10,12,36,18.30
2012,07,10,12,37,18.20
2012,07,10,12,38,18.20
2012,07,10,12,39,18.10
2012,07,10,12,40,18.20
2012,07,10,12,41,18.20
2012,07,10,12,42,18.20
2012,07,10,12,43,18.20
2012,07,10,12,44,18.10
2012,07,10,12,45,18.10
2012,07,10,12,46,18.10
2012,07,10,12,47,18.20
2012,07,10,12,48,18.20
2012,07,10,12,49,18.30
2012,07,10,12,50,18.40
2012,07,10,12,51,18.40
2012,07,10,12,52,18.30
2012,07,10,12,53,18.30
2012,07,10,12,54,18.40
2012,07,10,12,55,18.50
2012,07,10,12,56,18.60
2012,07,10,12,57,18.60
2012,07,10,12,58,18.50
2012,07,10,12,59,18.50
2012,07,10,13,00,18.50
2012,07,10,13,01,18.50
2012,07,10,13,02,18.60
2012,07,10,13,03,18.70
2012,07,10,13,04,18.90
2012,07,10,13,05,18.90
2012,07,10,13,06,19.00
2012,07,10,13,07,19.10
2012,07,10,13,08,19.20
2012,07,10,13,09,19.20
2012,07,10,13,10,19.10
2012,07,10,13,11,19.00
2012,07,10,13,12,18.90
2012,07,10,13,13,19.00
2012,07,10,13,14,19.10
2012,07,10,13,15,19.20
2012,07,10,13,16,19.10
2012,07,10,13,17,19.20
2012,07,10,13,18,19.30
2012,07,10,13,19,19.40
2012,07,10,13,20,19.40
2012,07,10,13,21,19.40
2012,07,10,13,22,19.50
2012,07,10,13,23,19.40
2012,07,10,13,24,19.30
2012,07,10,13,25,19.20
2012,07,10,13,26,19.20
2012,07,10,13,27,19.10
2012,07,10,13,28,19.10
2012,07,10,13,29,19.10
2012,07,10,13,30,19.10
2012,07,10,13,31,19.10
2012,07,10,13,32,19.10
2012,07,10,13,33,19.10
2012,07,10,13,34,19.10
2012,07,10,13,35,19.10
2012,07,10,13,36,19.20
2012,07,10,13,37,19.20
2012,07,10,13,38,19.30
2012,07,10,13,39,19.40
2012,07,10,13,40,19.60
2012,07,10,13,41,19.70
2012,07,10,13,42,19.80
2012,07,10,13,43,19.90
2012,07,10,13,44,19.90
2012,07,10,13,45,19.90
2012,07,10,13,46,19.90
2012,07,10,13,47,19.80
2012,07,10,13,48,19.80
2012,07,10,13,49,19.80
2012,07,10,13,50,19.80
2012,07,10,13,51,19.70
2012,07,10,13,52,19.70
2012,07,10,13,53,19.70
2012,07,10,13,54,19.80
2012,07,10,13,55,19.80
2012,07,10,13,56,19.80
2012,07,10,13,57,19.90
2012,07,10,13,58,19.80
2012,07,10,13,59,19.80
2012,07,10,14,00,19.90
2012,07,10,14,01,20.10
2012,07,10,14,02,20.20
2012,07,10,14,03,20.20
2012,07,10,14,04,20.30
2012,07,10,14,05,20.30
2012,07,10,14,06,20.40
2012,07,10,14,07,20.40
2012,07,10,14,08,20.40
2012,07,10,14,09,20.50
2012,07,10,14,10,20.60
2012,07,10,14,11,20.60
2012,07,10,14,12,20.70
2012,07,10,14,13,20.70
2012,07,10,14,14,20.80
2012,07,10,14,15,20.80
2012,07,10,14,16,20.90
2012,07,10,14,17,21.00
2012,07,10,14,18,21.10
2012,07,10,14,19,21.10
2012,07,10,14,20,21.10
2012,07,10,14,21,21.10
2012,07,10,14,22,21.10
2012,07,10,14,23,21.10
2012,07,10,14,24,21.30
2012,07,10,14,25,21.30
2012,07,10,14,26,21.30
2012,07,10,14,27,21.30
2012,07,10,14,28,21.30
2012,07,10,14,29,21.20
2012,07,10,14,30,21.10
2012,07,10,14,31,21.10
2012,07,10,14,32,21.10
2012,07,10,14,33,21.10
2012,07,10,14,34,21.30
2012,07,10,14,35,21.30
2012,07,10,14,36,21.30
2012,07,10,14,37,21.30
2012,07,10,14,38,21.40
2012,07,10,14,39,21.50
2012,07,10,14,40,21.60
2012,07,10,14,41,21.80
2012,07,10,14,42,21.80
2012,07,10,14,43,21.70
2012,07,10,14,44,21.60
2012,07,10,14,45,21.60
2012,07,10,14,46,21.60
2012,07,10,14,47,21.70
2012,07,10,14,48,21.90
2012,07,10,14,49,21.90
2012,07,10,14,50,21.90
2012,07,10,14,51,22.00
2012,07,10,14,52,22.00
2012,07,10,14,53,22.00
2012,07,10,14,54,22.00
2012,07,10,14,55,21.90
2012,07,10,14,56,21.90
2012,07,10,14,57,21.80
2012,07,10,14,58,21.90
2012,07,10,14,59,22.10
2012,07,10,15,00,22.10
2012,07,10,15,01,22.20
2012,07,10,15,02,22.30
2012,07,10,15,03,22.40
2012,07,10,15,04,22.50
2012,07,10,15,05,22.50
2012,07,10,15,06,22.50
2012,07,10,15,07,22.50
2012,07,10,15,08,22.50
2012,07,10,15,09,22.60
2012,07,10,15,10,22.60
2012,07,10,15,11,22.60
2012,07,10,15,12,22.60
2012,07,10,15,13,22.60
2012,07,10,15,14,22.60
2012,07,10,15,15,22.60
2012,07,10,15,16,22.70
2012,07,10,15,17,22.70
2012,07,10,15,18,22.70
2012,07,10,15,19,22.70
2012,07,10,15,20,22.70
2012,07,10,15,21,22.70
2012,07,10,15,22,22.70
2012,07,10,15,23,22.70
2012,07,10,15,24,22.80
2012,07,10,15,25,22.90
2012,07,10,15,26,23.00
2012,07,10,15,27,23.10
2012,07,10,15,28,23.00
2012,07,10,15,29,22.80
2012,07,10,15,30,22.60
2012,07,10,15,31,22.50
2012,07,10,15,32,22.50
2012,07,10,15,33,22.60
2012,07,10,15,34,22.70
2012,07,10,15,35,22.70
2012,07,10,15,36,22.60
2012,07,10,15,37,22.50
2012,07,10,15,38,22.50
2012,07,10,15,39,22.60
2012,07,10,15,40,22.60
2012,07,10,15,41,22.70
2012,07,10,15,42,22.60
2012,07,10,15,43,22.60
2012,07,10,15,44,22.60
2012,07,10,15,45,22.60
2012,07,10,15,46,22.60
2012,07,10,15,47,22.60
2012,07,10,15,48,22.70
2012,07,10,15,49,22.70
2012,07,10,15,50,22.70
2012,07,10,15,51,22.70
2012,07,10,15,52,22.80
2012,07,10,15,53,22.80
2012,07,10,15,54,22.80
2012,07,10,15,55,22.80
2012,07,10,15,56,22.70
2012,07,10,15,57,22.70
2012,07,10,15,58,22.70
2012,07,10,15,59,22.70
2012,07,10,16,00,22.80
2012,07,10,16,01,22.90
2012,07,10,16,02,22.80
2012,07,10,16,03,22.80
2012,07,10,16,04,22.70
2012,07,10,16,05,22.60
2012,07,10,16,06,22.50
2012,07,10,16,07,22.50
2012,07,10,16,08,22.60
2012,07,10,16,09,22.70
2012,07,10,16,10,22.80
2012,07,10,16,11,22.80
2012,07,10,16,12,22.90
2012,07,10,16,13,22.90
2012,07,10,16,14,23.10
2012,07,10,16,15,23.20
2012,07,10,16,16,23.30
2012,07,10,16,17,23.30
2012,07,10,16,18,23.30
2012,07,10,16,19,23.30
2012,07,10,16,20,23.30
2012,07,10,16,21,23.30
2012,07,10,16,22,23.30
2012,07,10,16,23,23.20
2012,07,10,16,24,23.10
2012,07,10,16,25,23.00
2012,07,10,16,26,23.00
2012,07,10,16,27,23.10
2012,07,10,16,28,23.10
2012,07,10,16,29,23.10
2012,07,10,16,30,23.10
2012,07,10,16,31,23.10
2012,07,10,16,32,23.20
2012,07,10,16,33,23.20
2012,07,10,16,34,23.20
2012,07,10,16,35,23.20
2012,07,10,16,36,23.20
2012,07,10,16,37,23.20
2012,07,10,16,38,23.20
2012,07,10,16,39,23.20
2012,07,10,16,40,23.20
2012,07,10,16,41,23.20
2012,07,10,16,42,23.30
2012,07,10,16,43,23.30
2012,07,10,16,44,23.20
2012,07,10,16,45,23.20
2012,07,10,16,46,23.10
2012,07,10,16,47,23.00
2012,07,10,16,48,22.90
2012,07,10,16,49,22.90
2012,07,10,16,50,22.80
2012,07,10,16,51,22.80
2012,07,10,16,52,22.90
2012,07,10,16,53,22.90
2012,07,10,16,54,22.90
2012,07,10,16,55,23.10
2012,07,10,16,56,23.10
2012,07,10,16,57,23.00
2012,07,10,16,58,22.90
2012,07,10,16,59,22.90
2012,07,10,17,00,22.80
2012,07,10,17,01,22.80
2012,07,10,17,02,22.70
2012,07,10,17,03,22.70
2012,07,10,17,04,22.60
2012,07,10,17,05,22.50
2012,07,10,17,06,22.50
2012,07,10,17,07,22.60
2012,07,10,17,08,22.60
2012,07,10,17,09,22.60
2012,07,10,17,10,22.50
2012,07,10,17,11,22.40
2012,07,10,17,12,22.40
2012,07,10,17,13,22.40
2012,07,10,17,14,22.30
2012,07,10,17,15,22.30
2012,07,10,17,16,22.20
2012,07,10,17,17,22.10
2012,07,10,17,18,22.10
2012,07,10,17,19,22.10